sat.trackr.live / text

‹ back to catalog

CARTOSAT-2D

NORAD 41948 · 2017-008A

PAYLOAD ACTIVE UNKNOWN

§ Identity

Operator
Country
IND
Launch date
2017-02-15
Launch site
SRILR
Launch vehicle
Mass (kg)
RCS (m²)
2.23

Purposes: earth_obs

External: N2YO · Heavens-Above · Gunter

§ Orbital elements

Epoch: 2026-09-12T03:55:49.435968Z

Period
94.78 min
Inclination
97.4025°
Eccentricity
0.0003607
Mean motion
15.19309213 rev/d
Perigee alt
505.4 km
Apogee alt
510.4 km
Semi-major
6,886.1 km
B*
1.7444e-4
RAAN
312.8023°
Arg perigee
310.0854°
Mean anomaly
50.0064°
Rev number
53,078

§ Raw data

CARTOSAT-2D1 41948U 17008A   26255.16376662  .00003615  00000+0  17444-3 0  99962 41948  97.4025 312.8023 0003607 310.0854  50.0064 15.19309213530783

JSON: /api/v1/satellites/41948 · /tle

For live sub-satellite position, see the globe view (requires WebGL).

§ Visibility from observer

Set your observer location to see the next 7 days of passes ≥ 10°. The values pass through the URL so the page stays shareable.

No JS? Fill the form by hand. The geolocation button needs JavaScript.

§ Radio — SatNOGS DB

ModeDescriptionDownlinkUplink
CW Beacon 2.246 GHz
BPSK Mode U - BPSK 4K0 402.761 MHz

2 transmitters · refreshed weekly from db.satnogs.org